STARLINK-1755 (46591 NORAD) Tracking and Keplerian Element Data

This shows tracking and keplerian element data for the satellite.

Feedback or suggestion? Click here.




ElementValue
Catalog46591
NameSTARLINK-1755
Epoch Orbit965
Epoch Day336.91667824
Epoch Year2020
RAAN165.1822
Inclination52.9982
Eccentricity0.0002137
Argument of Perigee21.9538
Mean Anonmoly44.0624
Mean Motion15.62735378
Decay Rate0.00053756
L11 46591U 20070BM 20336.91667824 .00053756 00000-0 58939-3 0 9994
L22 46591 52.9982 165.1822 0002137 21.9538 44.0624 15.62735378 9655

Live tracking and technical data element details for STARLINK-1755 (NORAD 46591). STARLINK-1755 can be tracked NOW for your location showing map with azimuth and elevation plus other details from your city location.

Track the satellite on the map from your city or location and see movement details for azimuth, elevation, latitude, longitude, range, height, and movement on the map or in text.







IsCatalogInMostPopularTable: catalog: 46591, numindb: 19
Update: records affected: 1



GetName: 46591 STARLINK-1755

Hit Count: updated at: Thu, 03 Dec 2020 07:03:03 GMT